KA8UPW-1 Weather Reports


time (UTC)temp
C
wind
direction
speed
KPH
gust
KPH
rain 1hr
cm
rain 24hr
cm
rain mn
cm
humidity
%
barometer
mb
20260502223818 6 0 0.0 0.0 0.00 0.13 0.13 69 1014.8
20260502222703 6 0 0.0 0.0 0.00 0.13 0.13 69 1014.8
20260502221804 6 0 0.0 0.0 0.00 0.13 0.13 71 1014.8
20260502220903 6 0 0.0 0.0 0.00 0.13 0.13 69 1014.8
20260502220003 6 0 0.0 0.0 0.00 0.13 0.13 69 1014.8
20260502215404 6 0 0.0 0.0 0.00 0.13 0.13 70 1014.8
20260502214504 6 0 0.0 0.0 0.00 0.13 0.13 69 1014.8
20260502213818 6 0 0.0 0.0 0.00 0.13 0.13 69 1014.7
20260502212704 6 0 0.0 0.0 0.00 0.13 0.13 69 1014.7
20260502211803 6 0 0.0 0.0 0.00 0.13 0.13 68 1014.6
20260502210904 6 0 0.0 0.0 0.00 0.13 0.13 67 1014.7
20260502210003 6 0 0.0 0.0 0.00 0.13 0.13 67 1014.6
20260502205619 6 0 0.0 0.0 0.00 0.15 0.13 67 1014.7
20260502204503 7 0 0.0 0.0 0.00 0.15 0.13 64 1014.7
20260502203604 7 0 0.0 0.0 0.00 0.15 0.13 67 1014.7
20260502202703 7 0 0.0 0.0 0.00 0.15 0.13 71 1014.7
20260502201804 6 0 0.0 0.0 0.00 0.15 0.13 74 1014.8
20260502200903 5 0 0.0 0.0 0.00 0.15 0.13 75 1015.0
20260502200003 5 0 0.0 0.0 0.00 0.15 0.13 77 1015.1
20260502195403 5 0 0.0 0.0 0.00 0.15 0.13 78 1015.1
20260502194504 5 0 0.0 0.0 0.00 0.15 0.13 77 1015.2
20260502193603 5 0 0.0 0.0 0.00 0.15 0.13 77 1015.2
20260502192917 5 0 0.0 0.0 0.00 0.15 0.13 77 1015.3
20260502192020 5 0 0.0 0.0 0.00 0.15 0.13 77 1015.3
20260502190903 5 0 0.0 0.0 0.00 0.15 0.13 80 1015.4
20260502190219 5 0 0.0 0.0 0.03 0.15 0.13 82 1015.5
20260502185404 5 0 0.0 0.0 0.03 0.15 0.13 84 1015.5
20260502184718 5 0 0.0 0.0 0.03 0.15 0.13 86 1015.5
20260502183603 4 0 0.0 0.0 0.03 0.15 0.13 88 1015.6
20260502182703 4 0 0.0 0.0 0.03 0.15 0.13 89 1015.7
20260502181804 3 0 0.0 0.0 0.03 0.18 0.13 88 1015.7
20260502180903 3 0 0.0 0.0 0.03 0.18 0.13 87 1015.7
20260502163603 3 0 0.0 0.0 0.03 0.46 0.10 91 1015.8
20260502162704 3 0 0.0 0.0 0.05 0.46 0.10 91 1015.9
20260502161804 3 0 0.0 0.0 0.08 0.48 0.10 92 1015.9
20260502160903 3 0 0.0 0.0 0.08 0.51 0.10 91 1015.9
20260502150903 3 0 0.0 0.0 0.00 0.51 0.03 82 1015.7
20260502123604 2 0 0.0 0.0 0.00 0.79 0.03 90 1014.6
20260502122921 2 0 0.0 0.0 0.00 0.79 0.03 89 1014.6
20260502122019 1 0 0.0 0.0 0.00 0.79 0.03 89 1014.6
20260502120903 1 0 0.0 0.0 0.00 0.81 0.03 88 1014.7
20260502120218 1 0 0.0 0.0 0.00 0.81 0.03 88 1014.8
20260502115403 1 0 0.0 0.0 0.00 0.81 0.03 88 1014.7
20260502113820 1 0 0.0 0.0 0.00 0.81 0.03 89 1014.7
20260502112917 2 0 0.0 0.0 0.00 0.81 0.03 86 1014.6
20260502111803 2 0 0.0 0.0 0.00 0.81 0.03 86 1014.3
20260502110904 2 0 0.0 0.0 0.00 0.81 0.03 86 1014.2
20260502110004 2 0 0.0 0.0 0.00 0.81 0.03 86 1014.1
20260502105404 2 0 0.0 0.0 0.00 0.81 0.03 86 1014.1
20260502104503 2 0 0.0 0.0 0.00 0.81 0.03 86 1014.1
20260502103603 2 0 0.0 0.0 0.00 0.84 0.03 86 1014.2
20260502102703 2 0 0.0 0.0 0.00 0.84 0.03 86 1014.2
20260502101804 2 0 0.0 0.0 0.00 0.84 0.03 86 1014.2
20260502100903 2 0 0.0 0.0 0.00 0.84 0.03 86 1014.1
20260502091118 2 0 0.0 0.0 0.00 0.84 0.03 86 1014.1
20260502071119 2 0 0.0 0.0 0.00 0.84 0.03 92 1013.6
20260502070004 2 0 0.0 0.0 0.00 0.84 0.03 92 1013.6
20260502065403 2 0 0.0 0.0 0.00 0.84 0.03 92 1013.6
20260502064503 3 0 0.0 0.0 0.00 0.84 0.03 92 1013.6
20260502063818 3 0 0.0 0.0 0.00 0.84 0.03 92 1013.7
20260502062920 3 0 0.0 0.0 0.03 0.84 0.03 92 1013.8
20260502061804 3 0 0.0 0.0 0.03 0.84 0.03 92 1013.9
20260502060903 3 0 0.0 0.0 0.03 0.84 0.03 92 1014.0
20260502060003 3 0 0.0 0.0 0.03 0.84 0.03 92 1014.0
20260502055404 3 0 0.0 0.0 0.03 0.84 0.03 92 1014.0
20260502054503 4 0 0.0 0.0 0.03 0.84 0.03 92 1014.1
20260502053818 4 0 0.0 0.0 0.03 0.84 0.03 92 1014.1
20260502052704 4 0 0.0 0.0 0.00 0.81 0.00 93 1014.2
20260502051803 4 0 0.0 0.0 0.00 0.81 0.00 93 1014.1
20260502050903 4 0 0.0 0.0 0.00 0.81 0.00 93 1014.1
20260502050003 4 0 0.0 0.0 0.00 0.81 0.00 93 1014.1
20260502045403 3 0 0.0 0.0 0.00 0.81 0.00 93 1014.1
20260502044717 3 0 0.0 0.0 0.00 0.81 0.00 93 1014.1
20260502043603 3 0 0.0 0.0 0.00 0.81 0.00 92 1014.0
20260502042704 3 0 0.0 0.0 0.00 0.81 0.00 92 1014.0
20260502042019 3 0 0.0 0.0 0.00 0.81 0.00 92 1014.0
20260502041121 3 0 0.0 0.0 0.00 0.81 0.00 92 1014.3
20260502040005 3 0 0.0 0.0 0.00 0.81 0.00 91 1014.3
20260502035403 3 0 0.0 0.0 0.00 0.81 0.81 91 1014.2
20260502034504 3 0 0.0 0.0 0.00 0.81 0.81 91 1014.2
20260502033820 4 0 0.0 0.0 0.00 0.81 0.81 92 1014.3
20260502032703 4 0 0.0 0.0 0.00 0.81 0.81 92 1014.3
20260502031803 4 0 0.0 0.0 0.00 0.81 0.81 92 1014.3
20260502030903 3 0 0.0 0.0 0.00 0.81 0.81 92 1014.3
20260502030003 3 0 0.0 0.0 0.00 0.81 0.81 91 1014.1
20260502025404 3 0 0.0 0.0 0.00 0.81 0.81 90 1014.0
20260502024503 3 0 0.0 0.0 0.00 0.81 0.81 90 1013.9
20260502023603 3 0 0.0 0.0 0.00 0.81 0.81 89 1013.9
20260502022704 3 0 0.0 0.0 0.00 0.81 0.81 89 1013.9
20260502021804 3 0 0.0 0.0 0.00 0.81 0.81 88 1014.0
20260502021123 3 0 0.0 0.0 0.00 0.81 0.81 88 1014.0
20260502020220 4 0 0.0 0.0 0.00 0.81 0.81 87 1014.0
20260502015403 4 0 0.0 0.0 0.00 0.81 0.81 87 1013.9
20260502014504 5 0 0.0 0.0 0.00 0.81 0.81 87 1013.8
20260502013604 5 0 0.0 0.0 0.00 0.81 0.81 86 1013.8
20260502012703 5 0 0.0 0.0 0.00 0.81 0.81 86 1013.9
20260502011803 5 0 0.0 0.0 0.00 0.81 0.81 87 1013.6
20260502010903 5 0 0.0 0.0 0.00 0.81 0.81 86 1013.5
20260502010004 5 0 0.0 0.0 0.00 0.81 0.81 85 1013.3
20260502005404 5 0 0.0 0.0 0.00 0.81 0.81 85 1013.4
20260502004503 6 0 0.0 0.0 0.00 0.81 0.81 84 1013.3
20260502003603 6 0 0.0 0.0 0.00 0.81 0.81 83 1013.3
20260502002703 6 0 0.0 0.0 0.00 0.81 0.81 83 1013.3
20260502001804 6 0 0.0 0.0 0.00 0.81 0.81 82 1013.0
20260502000903 6 0 0.0 0.0 0.00 0.81 0.81 82 1012.9
20260502000003 6 0 0.0 0.0 0.00 0.81 0.81 82 1012.8
20260501235617 6 0 0.0 0.0 0.00 0.81 0.81 81 1012.8
20260501234504 6 0 0.0 0.0 0.00 0.81 0.81 81 1012.7
20260501233817 6 0 0.0 0.0 0.00 0.81 0.81 82 1012.6
20260501232703 6 0 0.0 0.0 0.00 0.81 0.81 81 1012.6
20260501231803 6 0 0.0 0.0 0.00 0.81 0.81 81 1012.5
20260501230904 6 0 0.0 0.0 0.00 0.81 0.81 82 1012.5
20260501230003 6 0 0.0 0.0 0.00 0.81 0.81 82 1012.6
20260501225403 6 0 0.0 0.0 0.00 0.81 0.81 82 1012.7
20260501224503 6 0 0.0 0.0 0.00 0.81 0.81 82 1012.7